Location: Kitt Peak
(31.9639°N, 111.5992°W)
Time: 16:03:28
(UTC-07:00)

DIWATA 2B (PO-101) - Pass Details

Date: 22 September 2024
Orbit: 572 x 585 km, 98.1° (Epoch: 10 October)

Event Time Altitude Azimuth Distance (km) Brightness Sun altitude
Rises 04:40:51 0° 178° (S) 2,770 ? -20.6°
Enters shadow 04:41:05 - 178° (S) 2,670 ? -20.6°
Exits shadow 04:46:26 46° 232° (SW) 769 ? -19.5°
Maximum altitude 04:46:59 50° 260° (W) 732 ? -19.3°
Drops below altitude 10° 04:50:56 10° 336° (NNW) 1,880 ? -18.5°
Sets 04:53:08 0° 342° (NNW) 2,780 ? -18.1°
